#timestamp,LO_Frequency,Hit,StdDev 
1624647615.8,286046997.0,Y
1624647635.7,286046999.8,P
1624647655.5,286047002.8,P
1624647675.3,286047001.8,N
1624647695.2,286047004.0,N
1624647715.0,286047001.7,N
1624647715.9,286047001.7,N
1624647735.7,286047001.6,N
1624647755.6,286047002.4,N
1624647775.4,286047002.0,N
1624647795.3,286047001.6,N
1624647815.1,286047002.5,N
1624647816.0,286047002.5,N
1624647835.8,286047000.0,N
1624647855.7,286047002.8,N
1624647875.5,286046999.8,N
1624647895.4,286046998.2,N
1624647915.2,286047002.4,N
1624647935.0,286047002.0,N
1624647935.9,286047002.0,N
1624647955.8,286047004.1,N
1624647975.6,286047003.1,N
1624647995.4,286047003.0,N
1624648015.3,286047003.1,N
1624648035.1,286047003.9,N
1624648055.9,286046999.7,N
1624648075.7,286047001.0,N
1624648095.5,286047000.7,N
1624648115.4,286047000.7,N
1624648135.2,286047000.9,N
1624648155.0,286047001.1,N
1624648155.9,286047001.1,N
1624648175.8,286047000.6,N
1624648195.6,286047000.7,N
1624648215.5,286046998.4,N
1624648235.3,286046998.2,N
1624648255.1,286047000.8,N
1624648275.9,286047001.2,N
1624648295.7,286047000.3,N
1624648315.5,286047000.0,N
1624648335.4,286047000.0,N
1624648355.2,286047002.8,N
1624648375.1,286047002.6,N
1624648376.0,286047002.6,N
1624648395.8,286047000.5,N
1624648415.6,286047000.6,N
1624648435.5,286046998.5,N
1624648455.3,286046998.5,N
1624648475.1,286047001.0,N
1624648495.9,286046999.9,N
1624648515.7,286047001.0,N
1624648535.6,286047001.2,N
1624648555.4,286046998.3,N
1624648575.2,286047001.2,N
1624648595.1,286047001.1,N
1624648596.0,286047001.1,N
1624648615.8,286047000.0,N
1624648635.6,286046998.1,N
1624648655.5,286046998.8,N
1624648675.3,286046998.4,N
1624648695.2,286046998.5,N
1624648715.9,286046996.9,N
1624648735.7,286046998.9,N
1624648755.6,286046999.3,N
1624648775.4,286046996.5,N
1624648795.2,286046997.0,N
1624648815.1,286046997.7,N
1624648816.0,286046997.7,N
1624648835.8,286046996.8,N
1624648855.7,286046997.6,N
1624648875.5,286046994.9,N
1624648895.3,286046995.3,N
1624648915.2,286046995.1,N
1624648935.0,286046995.4,N
1624648935.9,286046995.4,N
1624648955.7,286046995.5,N
1624648975.6,286046996.2,N
1624648995.4,286046993.3,Y
1624649015.3,286046997.1,P
1624649035.1,286046997.1,P
1624649036.0,286046997.1,P
1624649055.8,286046997.1,Y
1624649075.7,286047000.5,P
1624649095.5,286046999.0,N
1624649115.4,286047000.9,N
1624649135.2,286047002.8,N
1624649155.0,286047002.6,N
1624649155.9,286047002.6,N
1624649175.8,286047002.8,N
1624649195.6,286047000.2,N
1624649215.4,286046999.8,N
1624649235.3,286047002.8,N
1624649255.1,286047002.0,N
1624649275.8,286047000.0,N
1624649295.7,286047000.1,N
1624649315.5,286047002.6,N
1624649335.4,286047002.1,N
1624649355.2,286046999.7,N
1624649375.0,286047002.0,N
1624649375.9,286047002.0,N
1624649395.8,286047001.3,N
1624649415.6,286047001.4,N
1624649435.5,286047001.3,N
1624649455.3,286047004.0,N
1624649475.1,286047006.0,Y
1624649495.9,286047002.6,P
1624649515.7,286046999.8,N
1624649535.6,286047000.0,N
1624649555.4,286047002.7,N
1624649575.2,286047000.0,N
1624649595.1,286047002.1,N
1624649596.0,286047002.1,N
1624649615.8,286047002.3,N
1624649635.7,286047002.8,N
1624649655.5,286047002.7,N
1624649675.3,286047001.1,N
1624649695.2,286047000.0,N
1624649715.0,286047002.7,N
1624649715.9,286047002.7,N
1624649735.8,286047000.4,N
1624649755.6,286047001.8,N
1624649775.4,286047004.3,Y
1624649825.3,286047002.0,E
1624649835.2,286046999.8,N
1624649855.1,286047001.2,P
1624649856.0,286047001.2,N
1624649875.8,286047001.2,N
1624649895.6,286047000.3,N
1624649915.5,286047000.8,N
1624649935.3,286047000.3,N
1624649955.2,286046998.1,Y
1624649975.9,286046996.5,P
1624649995.7,286046998.4,N
1624650015.6,286046998.6,N
1624650035.4,286046998.2,N
1624650055.2,286046999.4,N
1624650075.1,286046999.0,N
1624650076.0,286046999.0,N
1624650095.8,286046999.0,N
1624650115.7,286046999.9,N
1624650135.5,286047000.0,N
1624650155.3,286047002.7,N
1624650175.2,286046999.9,N
1624650195.0,286047000.1,N
1624650195.9,286047000.1,N
1624650215.8,286046998.4,N
1624650235.6,286046998.6,N
1624650255.4,286047001.0,N
1624650275.3,286046998.4,N
1624650295.1,286046998.3,N
1624650315.8,286047001.2,N
1624650335.7,286046998.1,N
1624650355.5,286047001.2,N
1624650375.4,286047000.5,N
1624650395.2,286047000.6,N
1624650415.0,286047000.5,N
1624650415.9,286047000.5,N
1624650435.8,286047000.5,N
1624650455.6,286046999.7,N
1624650475.4,286047000.7,N
1624650495.3,286046999.1,N
1624650515.1,286047001.0,N
1624650535.9,286047001.1,N
1624650555.7,286046998.5,N
1624650575.5,286047000.4,N
1624650595.4,286047002.8,N
1624650615.2,286047000.2,N
1624650635.0,286047000.1,N
1624650635.9,286047000.1,N
1624650655.8,286047002.7,N
1624650675.6,286047002.1,N
1624650695.5,286047000.7,N
1624650715.3,286047002.3,N
1624650735.1,286047001.0,N
1624650755.9,286046998.7,N
1624650775.7,286046999.3,N
1624650795.5,286046999.0,N
1624650815.4,286046998.3,N
1624650835.2,286046998.6,N
1624650855.1,286047000.7,N
1624650856.0,286047000.7,N
1624650875.8,286047000.2,N
1624650895.6,286047002.1,N
1624650915.5,286046999.8,N
1624650935.3,286047002.4,N
1624650955.2,286047004.4,Y
1624650975.9,286047002.0,P
1624650995.7,286046999.8,N
1624651015.6,286047001.8,N
1624651035.4,286047001.6,N
1624651055.2,286047002.2,N
1624651075.1,286047002.1,N
1624651076.0,286047002.1,N
1624651095.8,286047001.4,N
1624651115.7,286047003.9,Y
1624651135.5,286047000.1,P
1624651155.3,286047000.8,N
1624651175.2,286047000.8,N
1624651195.0,286046999.8,N
1624651195.9,286046999.8,N
